COSMOS 2456 (730)

Last updated on Mon Jun 22 2026 00:03:26 GMT+0000 (Coordinated Universal Time)

1 36111U 09070A 26172.32191416 -.00000053 00000+0 00000+0 0 9990 2 36111 65.0135 70.8309 0004475 334.3318 214.0062 2.13103564128513
UTC large
Height (km)
Speed (km/s)
/
Latitude / Longitude
Inclination (degrees)
Orbital Period (minutes)
Azimuth
Elevation
Range (km)
Doppler Factor

Next 0 passes for location: London (51.5072 / 0.1276)

No passes found over London.
COSMOS 2456 (730)